Location: Cz?stochówka
(50.8142°N, 19.0915°E)
Time: 01:57:13
(UTC+00:00)

Cosmos 2366 rocket - Pass Details

Date: 12 April 2026
Orbit: 954 x 996 km, 82.9° (Epoch: 19 May)

Event Time Altitude Azimuth Distance (km) Brightness Sun altitude
Rises 21:52:19 0° 256° (WSW) 3,645 7.0 -29.2°
Reaches altitude 10° 21:56:52 10° 287° (WNW) 2,697 6.6 -29.4°
Maximum altitude 21:59:02 12° 308° (NW) 2,562 6.8 -29.4°
Drops below altitude 10° 22:01:13 10° 329° (NNW) 2,697 7.1 -29.5°
Sets 22:05:47 0° 1° (N) 3,646 8.1 -29.7°
